Temp
55 53 53 55 54 53 52 50 51 49 50 49 49 47 43 42 40 40 38 38 38 38
55 54 55 53 54 52 51 52 50 50 49 47 45 44 43 41 40 39 38 37 38 37
56 54 54 54 51 50 49 51 50 49 47 46 45 44 43 40 40 39 38 39 38 37
55 55 54 52 51 51 50 50 49 49 47 46 45 45 42 40 41 40 38 38 38 38
55 54 53 51 51 50 49 49 48 47 46 46 45 44 42 40 40 38 37 38 38 38
54 53 51 51 49 48 48 46 46 46 46 45 44 42 42 41 40 39 38 38 36 37
53 53 50 49 48 47 48 45 46 47 46 44 42 42 41 40 38 37 38 37 36 36
51 48 49 48 45 48 46 47 47 46 43 42 42 42 39 39 36 35 35 35 36 36
50 49 47 46 46 45 47 46 45 43 41 38 42 40 39 37 33 34 33 31 32 32
49 47 47 48 47 46 44 44 42 40 40 39 38 38 38 37 32 32 31 30 30 32
46 45 46 45 45 43 43 41 39 37 38 36 38 38 38 37 31 30 30 30 31 30
46 44 44 42 42 42 39 38 37 37 36 35 34 38 37 35 29 29 29 32 32 31
44 44 43 42 40 39 38 38 37 35 34 36 33 36 37 35 27 29 29 30 30 33
45 43 42 40 39 38 36 34 33 32 32 32 33 32 36 36 31 30 29 28 28 28
MSLP
1020.20 1020.79 1021.30 1021.65 1022.21 1022.99 1023.92 1024.51 1024.63 1024.95 1024.74 1024.87 1025.42 1025.42 1025.46 1025.31 1025.49 1025.53 1025.81 1025.86 1025.90 1025.74
1020.32 1020.85 1021.69 1022.58 1023.30 1023.35 1024.63 1024.57 1024.67 1024.21 1024.74 1025.18 1025.03 1025.25 1025.26 1025.42 1025.39 1025.61 1025.79 1025.78 1025.75 1025.63
1020.13 1020.91 1021.68 1022.28 1022.99 1023.74 1023.76 1023.72 1023.89 1024.36 1024.82 1024.76 1024.75 1024.96 1025.06 1025.29 1025.44 1025.58 1025.60 1025.60 1025.57 1025.39
1020.66 1020.97 1021.93 1022.26 1023.41 1023.23 1023.61 1023.41 1024.24 1024.41 1024.61 1024.67 1024.85 1024.86 1025.06 1025.20 1025.47 1025.60 1025.55 1025.44 1025.41 1025.23
1020.37 1021.18 1021.61 1022.23 1023.19 1023.02 1023.70 1023.58 1023.79 1024.34 1024.50 1024.53 1024.61 1024.85 1024.97 1025.20 1025.37 1025.37 1025.34 1025.22 1025.15 1025.13
1020.06 1021.01 1021.99 1022.11 1022.70 1023.47 1023.90 1023.64 1023.85 1024.03 1024.08 1024.23 1024.52 1024.75 1024.85 1025.03 1025.11 1025.15 1025.12 1025.08 1025.01 1024.88
1020.16 1020.71 1021.05 1021.97 1022.88 1022.97 1023.18 1023.40 1023.72 1023.72 1023.75 1024.08 1024.36 1024.56 1024.77 1024.90 1024.98 1024.98 1024.95 1024.89 1024.83 1024.63
1020.15 1020.81 1021.44 1022.19 1022.32 1022.51 1023.11 1023.28 1023.11 1023.31 1023.71 1023.99 1024.07 1024.33 1024.58 1024.72 1024.80 1024.78 1024.78 1024.76 1024.67 1024.45
1020.84 1021.23 1021.46 1022.03 1022.19 1022.59 1022.76 1022.71 1023.07 1023.39 1023.53 1023.83 1023.93 1024.03 1024.29 1024.53 1024.63 1024.67 1024.63 1024.61 1024.45 1024.41
1020.99 1021.28 1021.76 1022.03 1022.50 1022.44 1022.51 1022.82 1023.04 1023.27 1023.48 1023.60 1023.69 1023.79 1023.86 1024.01 1024.22 1024.35 1024.34 1024.32 1024.22 1023.99
1021.46 1021.54 1021.93 1022.38 1022.31 1022.40 1022.52 1022.63 1022.75 1022.99 1023.16 1023.27 1023.27 1023.32 1023.39 1023.48 1023.74 1023.91 1023.96 1023.99 1023.80 1023.78
1021.60 1022.14 1022.25 1022.34 1022.31 1022.26 1022.39 1022.45 1022.51 1022.57 1022.75 1022.90 1022.90 1022.84 1022.86 1023.03 1023.32 1023.55 1023.59 1023.53 1023.51 1023.42
1021.85 1022.04 1022.05 1022.04 1022.17 1022.19 1022.22 1022.21 1022.24 1022.25 1022.28 1022.26 1022.34 1022.33 1022.31 1022.47 1022.79 1023.13 1023.11 1023.03 1022.98 1022.86
1021.78 1021.79 1021.81 1021.92 1022.08 1022.14 1022.12 1022.11 1022.13 1022.07 1021.92 1021.93 1021.82 1021.69 1021.64 1021.79 1022.18 1022.39 1022.43 1022.48 1022.40 1022.45
Wind_Speed
7 4 4 4 5 5 5 5 6 5 5 6 2 2 1 1 2 1 3 3 2 2
8 9 8 8 7 8 6 5 3 6 6 2 3 3 3 3 3 4 2 3 3 3
10 9 10 9 8 6 7 5 6 5 4 3 4 4 5 4 1 1 2 2 4 3
8 10 9 8 6 7 4 6 5 4 3 3 3 3 3 1 2 4 4 3 3 4
11 8 7 8 6 3 4 5 5 3 2 1 0 2 1 3 3 4 4 4 3 4
11 10 5 7 7 7 6 5 4 3 2 1 2 2 1 2 2 4 4 3 3 5
9 6 8 8 6 6 5 5 4 4 2 2 4 3 2 2 2 2 2 2 3 3
10 8 8 6 7 6 3 3 4 4 4 4 4 3 4 5 5 4 4 3 4 3
9 7 7 5 5 3 3 5 3 2 6 5 3 8 8 5 4 5 4 4 5 5
5 8 6 5 2 4 4 2 4 5 5 6 5 10 11 10 5 5 5 5 4 4
6 7 5 3 4 2 3 5 5 6 6 5 5 9 12 12 5 5 5 6 5 4
6 2 4 3 4 5 4 4 4 5 6 6 6 9 11 9 5 5 6 4 5 5
1 2 3 5 5 4 4 4 4 6 6 8 7 8 11 9 3 5 5 6 5 7
3 3 3 3 2 4 5 4 5 6 6 6 7 7 11 13 6 7 5 5 4 4
Wind_Direction
137 128 122 113 98 81 73 53 47 85 124 106 136 117 106 31 13 47 54 13 311 285
127 122 103 76 79 107 107 145 136 107 93 130 80 40 37 29 43 59 8 315 290 263
133 114 122 130 129 111 138 145 112 98 134 77 54 49 69 76 49 339 302 280 285 284
109 117 104 103 130 132 111 100 127 116 102 68 83 110 115 115 255 292 306 295 261 282
118 116 121 113 102 119 101 128 127 134 90 238 274 213 198 275 279 259 266 260 255 273
120 110 127 146 116 140 168 133 135 165 192 250 255 208 267 267 229 230 246 264 274 276
142 151 138 138 137 134 162 153 203 216 206 176 147 142 169 173 210 262 283 297 311 286
122 116 119 123 147 150 171 215 208 206 136 158 166 185 209 227 238 244 261 295 300 253
112 118 116 136 101 152 220 222 219 185 187 193 206 206 219 221 235 250 253 277 294 283
116 107 92 92 45 261 267 240 236 204 197 216 223 211 217 220 213 231 247 250 265 273
85 81 54 275 282 325 257 254 216 211 221 223 235 225 228 224 216 227 248 257 252 244
74 18 252 298 290 281 271 243 225 218 228 227 244 250 235 222 214 231 253 268 264 253
260 239 282 287 294 269 246 245 246 248 220 225 239 251 244 224 184 225 240 245 247 252
218 245 280 290 265 273 274 280 261 244 238 236 235 245 239 226 203 232 232 234 243 219